Wind_Speed
3 5 6 5 2 3 4 5 8 7 4 6 8 6 5 14 6 4 13 12 17 20 17 16 16 14 12 12 10 8 8 11 12 13 13 13 13 14 16 18 13 11 10 11 14 16 18 19 21
3 4 5 5 3 2 4 9 6 8 11 8 5 2 1 5 7 16 19 18 17 14 15 15 15 14 13 12 10 8 8 10 12 12 13 13 12 13 15 16 12 10 11 13 15 16 17 19 22
3 3 4 3 3 5 5 3 9 13 8 4 4 3 5 5 11 21 15 17 18 18 14 15 15 14 13 12 11 7 7 9 10 11 12 12 12 12 13 14 12 11 13 14 15 15 17 19 22
1 3 6 2 3 7 7 5 19 11 5 3 2 8 6 8 14 13 18 19 18 15 16 16 16 14 14 13 10 7 6 7 8 9 11 12 11 11 11 10 10 10 12 13 14 16 17 19 22
2 5 4 4 4 5 5 10 12 6 10 9 2 5 5 11 13 11 23 19 17 16 15 17 16 15 14 12 11 8 6 6 7 8 10 10 10 9 8 9 9 10 11 12 13 14 16 19 21
4 4 4 4 7 7 5 7 8 7 8 9 3 4 6 10 14 17 21 20 16 15 15 18 18 16 15 13 11 9 8 7 7 8 8 9 9 9 9 8 9 9 10 11 12 14 16 18 21
2 3 8 6 4 4 6 7 5 6 9 7 1 1 9 10 13 20 18 18 17 17 15 20 19 17 15 14 12 10 9 8 8 7 6 7 8 9 11 10 10 10 9 10 11 12 14 16 17
1 2 9 3 3 2 8 8 4 5 4 9 6 3 7 14 16 17 19 18 17 17 17 17 19 18 17 15 14 12 10 9 9 7 6 6 8 9 10 11 11 10 10 10 10 11 12 13 14
2 2 6 7 3 1 12 6 3 4 6 4 2 1 5 14 18 19 20 20 20 18 18 19 19 20 18 17 16 14 12 11 10 10 8 7 8 9 10 10 11 10 10 10 11 12 12 12 12
4 3 7 8 9 5 10 9 12 4 8 7 8 8 12 17 18 24 26 24 23 22 20 19 19 17 17 17 19 17 14 13 12 11 10 9 8 7 8 8 9 9 8 8 9 11 12 12 11
5 3 6 8 9 5 3 7 3 7 5 12 14 16 17 17 18 20 28 29 30 28 21 19 19 20 20 21 19 19 17 15 14 13 13 9 9 6 7 7 7 8 7 5 6 7 8 9 9
2 4 3 4 2 1 2 3 6 12 7 5 8 12 17 20 20 21 22 25 25 29 29 29 27 24 22 22 20 18 17 16 16 16 14 15 16 12 9 9 8 8 5 7 4 4 4 5 7
4 2 2 2 1 2 5 6 6 12 16 15 11 9 16 17 20 21 20 20 25 24 25 30 32 32 28 24 22 20 20 19 18 19 18 19 20 18 14 9 11 9 10 9 7 7 7 6 8
5 4 3 2 4 3 2 6 5 5 12 15 17 17 17 19 19 20 24 25 24 27 27 28 31 31 29 28 30 27 23 22 20 21 20 22 22 22 18 12 13 14 14 13 12 11 9 7 9
1 1 4 8 7 2 1 7 10 19 11 11 17 18 17 20 21 24 25 28 28 27 28 31 27 32 32 33 30 31 29 26 23 23 23 22 25 24 22 18 18 18 16 16 15 14 13 10 11
3 1 2 1 11 3 3 7 7 5 21 15 15 17 21 22 25 25 26 27 29 29 31 33 32 30 35 34 31 29 29 29 32 27 23 24 26 27 24 24 22 21 21 20 19 17 17 15 11
4 3 7 4 9 3 6 6 3 2 5 11 17 19 22 23 24 28 28 30 29 32 34 35 35 31 32 36 34 31 30 29 27 29 32 29 29 31 29 27 26 25 25 24 22 21 22 19 15
3 4 5 2 5 2 5 10 15 18 11 15 17 18 20 23 27 26 28 28 32 31 34 35 36 35 32 33 35 34 33 33 32 30 29 31 31 36 32 31 29 29 29 28 28 26 24 23 20
4 7 6 4 3 1 7 12 11 19 19 19 23 26 27 30 26 25 28 31 30 33 33 35 37 37 36 36 37 38 38 36 35 35 31 30 32 35 37 36 33 32 33 30 26 31 30 30 28
1 6 7 6 6 1 8 13 10 14 18 27 28 29 30 29 27 27 28 29 32 32 35 37 39 39 38 38 39 39 37 37 36 37 36 35 35 37 38 42 40 37 37 33 38 39 31 33 33
4 6 7 5 3 6 4 10 7 10 24 27 30 33 32 31 26 23 26 31 32 32 34 37 40 40 40 38 38 38 38 38 39 41 40 39 41 41 40 40 42 41 39 41 42 38 37 38 36
5 4 6 4 4 3 3 6 4 10 8 10 24 22 22 21 21 22 24 21 33 32 29 32 36 39 39 38 40 41 41 41 41 40 39 38 41 45 44 41 41 43 42 43 42 40 45 41 41
2 3 3 3 3 5 4 2 8 7 7 7 14 20 17 10 12 13 14 18 22 23 28 28 31 36 38 39 40 40 41 41 41 40 38 38 38 39 43 43 43 43 43 43 42 43 50 42 42
7 4 3 2 2 5 10 9 4 6 6 3 3 4 3 3 6 9 14 17 18 23 24 26 27 30 34 38 39 40 41 41 41 41 41 40 38 37 41 44 44 43 44 44 42 45 41 47 47
2 4 1 2 0 7 3 5 11 8 10 5 6 10 7 4 6 8 11 12 13 16 18 19 22 26 29 33 36 38 39 40 41 40 42 41 41 40 40 42 47 47 45 43 41 45 43 44 53
9 7 5 6 4 3 6 7 6 9 7 8 9 14 10 11 10 13 10 12 12 12 13 14 16 19 23 25 29 31 34 38 40 39 42 42 42 39 37 39 45 45 43 42 42 41 39 43 51
5 7 3 4 2 3 5 7 7 6 7 9 13 15 14 9 7 10 10 12 14 12 11 11 11 12 15 18 20 25 28 31 34 35 38 41 41 39 37 37 41 43 43 43 47 40 41 38 46
3 1 3 2 2 4 7 7 8 2 8 10 4 3 3 7 8 6 7 11 9 6 5 5 6 7 9 12 16 19 22 24 25 28 32 36 37 38 37 35 36 41 44 41 42 43 38 38 37
3 4 3 3 5 5 5 7 3 2 6 8 6 6 3 4 8 9 6 2 2 2 3 7 11 13 15 16 16 17 19 21 23 26 28 31 33 35 37 33 31 33 43 43 41 44 40 39 36
2 6 7 4 3 3 2 15 2 7 7 10 4 6 14 9 3 9 10 9 9 9 10 19 21 16 19 24 27 25 24 23 24 25 27 29 32 34 36 35 33 31 34 34 40 43 43 40 40
Wind_Direction
279 327 328 326 282 210 106 89 95 96 103 62 56 30 49 44 17 104 142 134 169 166 161 157 156 153 148 139 137 111 93 97 94 92 93 93 96 99 103 110 113 118 101 95 89 86 88 89 92
304 317 317 267 242 284 79 108 120 93 94 101 91 309 187 85 70 134 142 158 177 174 168 163 160 157 151 148 138 121 110 104 100 95 94 93 93 95 108 109 109 115 104 95 92 89 91 95 97
297 293 277 227 284 55 85 93 107 89 101 118 124 64 12 77 115 145 157 157 157 169 176 170 166 157 155 152 143 133 117 109 104 96 91 88 90 95 105 110 112 103 92 95 97 97 99 101 102
246 281 263 271 8 69 49 80 104 113 100 124 351 108 90 92 138 165 154 153 155 162 177 168 170 161 156 158 155 137 129 120 102 92 87 83 84 90 100 109 111 103 104 103 106 106 107 107 106
343 275 263 230 82 88 84 64 121 156 138 151 204 114 94 135 149 166 148 156 164 170 177 175 174 167 164 167 166 153 137 138 124 107 93 86 86 90 100 108 111 112 109 109 108 109 109 109 110
267 256 281 240 109 104 100 128 150 153 113 99 162 136 115 198 175 153 155 157 168 179 184 184 177 175 173 174 175 169 155 156 148 125 103 93 89 88 93 99 102 103 103 105 105 107 110 112 116
265 310 279 342 51 133 123 148 179 159 143 168 8 342 139 176 162 159 162 160 178 189 192 187 184 180 180 181 181 180 173 164 159 143 124 108 98 95 96 98 99 99 101 103 106 110 114 118 123
257 283 283 264 314 83 115 153 184 183 110 136 153 359 153 186 174 170 166 173 185 197 200 193 190 189 188 188 191 191 185 180 173 167 153 134 121 114 108 104 99 97 100 105 109 114 118 122 124
172 321 278 259 127 108 131 162 151 176 117 144 178 186 110 178 182 170 170 181 185 201 196 194 198 196 197 197 200 200 196 196 191 184 179 167 153 144 132 121 111 103 101 105 112 119 122 127 128
199 168 267 9 29 12 147 209 154 159 196 194 190 224 151 186 184 184 177 188 190 208 203 202 197 202 204 206 204 204 203 202 205 204 200 192 183 173 159 144 131 119 110 111 118 127 131 136 136
208 214 23 63 54 15 171 212 192 174 253 207 207 213 179 196 194 203 195 198 190 197 203 206 207 203 207 208 207 211 205 209 215 213 205 200 224 190 192 182 164 143 119 117 134 145 153 155 147
295 221 6 28 48 16 318 306 218 221 218 168 205 217 208 206 205 216 212 207 213 214 205 196 200 204 207 211 207 212 214 214 220 226 207 199 215 206 220 228 213 183 208 170 181 187 189 184 171
233 114 61 51 11 269 300 267 258 261 244 244 239 212 211 219 216 217 226 223 213 227 220 217 210 208 206 207 217 217 213 219 224 226 223 216 221 223 210 219 228 224 228 233 231 217 215 223 208
359 39 213 181 223 244 282 278 240 263 246 234 242 231 209 229 224 220 214 229 223 219 229 228 221 218 216 216 216 218 217 221 223 228 225 225 227 225 230 242 239 235 238 243 240 246 236 236 227
67 259 203 216 215 237 244 281 239 240 233 232 232 236 234 223 229 226 232 221 232 226 222 234 231 223 213 220 225 222 224 213 218 226 232 229 231 231 235 235 241 239 242 241 242 239 229 223 231
224 179 237 148 147 190 162 273 299 206 218 227 243 239 239 236 234 236 233 237 226 227 222 228 238 227 221 221 226 226 225 226 224 224 231 234 238 236 234 233 234 239 235 237 235 241 231 232 233
201 257 214 164 193 138 192 279 78 169 211 239 250 246 242 242 237 237 241 231 236 227 228 229 237 235 228 224 228 228 228 231 234 227 228 237 239 241 240 236 238 238 237 238 236 232 231 225 217
252 222 258 224 189 263 240 257 279 276 240 237 250 251 247 244 241 243 247 243 233 234 229 234 234 239 235 229 231 233 231 234 230 231 222 229 235 242 242 240 237 238 238 237 232 232 222 226 217
24 321 332 56 120 160 241 260 261 269 262 247 247 248 250 251 251 251 242 245 245 235 232 233 232 237 235 233 230 232 235 237 236 235 223 228 232 238 240 239 235 236 241 246 241 222 220 217 212
176 290 284 299 103 134 275 278 265 267 256 248 254 255 254 257 253 247 248 240 243 243 235 232 236 240 241 236 239 238 241 243 245 244 244 232 230 232 237 240 235 237 241 237 231 226 222 218 222
231 239 265 277 358 223 288 279 237 252 250 255 251 255 258 256 256 251 241 240 243 246 242 238 239 242 242 241 239 239 240 242 243 245 245 240 237 237 240 239 237 237 240 240 236 236 237 235 226
254 271 222 317 21 250 34 288 290 297 283 230 250 254 262 267 260 251 238 243 244 253 255 251 241 238 242 242 241 241 244 246 249 251 254 247 242 242 241 241 241 239 240 239 237 240 241 228 233
199 6 120 108 241 316 204 243 269 247 267 251 265 279 272 274 253 246 236 240 246 249 254 255 249 243 242 242 241 243 246 248 252 251 253 253 251 247 244 240 239 239 239 238 241 240 237 236 243
134 98 117 143 195 263 206 210 227 232 239 280 146 116 60 290 233 233 237 245 239 245 251 256 252 247 243 242 243 243 247 249 250 252 253 255 255 252 242 237 239 242 241 238 241 246 246 237 242
252 145 291 299 286 237 323 244 237 290 289 257 277 283 315 290 267 282 279 263 249 243 245 246 246 245 243 243 246 247 248 252 255 256 260 260 259 255 251 240 237 239 239 236 241 248 239 240 241
197 187 173 208 204 268 330 245 263 218 248 287 266 281 299 298 284 298 283 259 252 243 242 245 248 246 246 248 252 254 254 254 258 258 261 263 263 260 257 249 240 239 236 239 241 240 243 260 241
180 220 249 337 19 33 234 273 292 199 234 286 290 296 306 328 297 281 275 249 249 252 256 254 251 249 247 254 254 256 257 257 260 262 261 265 268 263 257 253 244 237 237 239 242 243 248 256 252
182 203 108 252 205 250 263 293 247 339 241 244 214 84 17 330 335 322 232 245 248 259 262 276 290 290 280 272 268 265 264 264 264 263 262 265 268 268 263 254 246 238 235 240 240 244 247 247 254
144 226 217 170 185 184 272 255 270 164 77 99 69 58 36 22 20 39 45 24 348 14 34 23 353 335 318 297 284 277 270 266 266 265 264 265 266 264 263 260 252 245 237 238 243 247 248 246 259
261 221 193 172 226 241 171 266 70 101 111 98 90 325 319 326 42 54 34 32 15 341 320 326 312 308 312 302 286 276 272 268 266 269 269 265 265 263 259 257 251 249 241 242 244 244 245 249 256
Height
1525 1525 1525 1525 1532 1522 1525 1530 1523 1531 1533 1538 1538 1540 1542 1542 1545 1558 1554 1557 1559 1561 1564 1566 1568 1570 1572 1573 1574 1575 1576 1574 1574 1575 1575 1575 1575 1575 1576 1577 1577 1577 1576 1576 1576 1576 1575 1575 1576
1526 1526 1526 1523 1530 1532 1534 1524 1528 1530 1536 1539 1540 1541 1541 1548 1548 1551 1555 1558 1559 1562 1565 1567 1569 1571 1573 1575 1576 1577 1577 1577 1577 1578 1577 1577 1577 1578 1578 1579 1580 1579 1578 1578 1578 1578 1578 1579 1579
1527 1527 1528 1523 1522 1536 1536 1523 1528 1533 1537 1539 1541 1543 1543 1549 1551 1553 1556 1558 1561 1563 1565 1567 1570 1572 1574 1576 1577 1578 1579 1578 1579 1580 1580 1579 1579 1580 1580 1580 1581 1581 1580 1580 1580 1581 1581 1582 1582
1528 1529 1527 1528 1525 1526 1525 1523 1527 1534 1539 1540 1541 1543 1548 1550 1551 1552 1555 1559 1561 1563 1565 1568 1570 1572 1574 1577 1578 1579 1580 1580 1581 1582 1582 1582 1582 1582 1582 1581 1582 1582 1582 1582 1582 1583 1583 1584 1585
1528 1527 1529 1525 1521 1522 1524 1525 1529 1534 1537 1540 1542 1544 1548 1551 1551 1552 1556 1560 1561 1563 1566 1568 1571 1572 1575 1577 1579 1580 1581 1582 1582 1583 1583 1583 1583 1583 1583 1583 1583 1584 1584 1584 1584 1585 1586 1587 1588
1529 1526 1532 1531 1524 1523 1524 1528 1530 1533 1536 1540 1543 1542 1548 1549 1551 1553 1556 1560 1562 1563 1566 1568 1570 1572 1575 1576 1578 1580 1582 1582 1583 1584 1585 1584 1585 1585 1585 1585 1585 1586 1586 1586 1586 1587 1588 1589 1590
1528 1528 1532 1524 1523 1523 1524 1528 1530 1532 1535 1538 1541 1541 1547 1547 1550 1553 1556 1560 1562 1563 1565 1567 1569 1572 1574 1576 1578 1580 1582 1583 1584 1585 1585 1586 1585 1586 1586 1587 1587 1587 1588 1588 1588 1589 1590 1591 1591
1527 1527 1530 1521 1525 1526 1524 1528 1530 1532 1535 1538 1540 1542 1545 1546 1550 1552 1556 1560 1562 1563 1564 1566 1568 1571 1573 1575 1578 1580 1582 1583 1585 1586 1586 1586 1586 1587 1588 1588 1589 1589 1590 1590 1590 1591 1592 1593 1593
1527 1534 1537 1525 1521 1522 1525 1528 1531 1532 1534 1537 1539 1541 1543 1544 1548 1552 1555 1559 1561 1562 1563 1565 1567 1569 1572 1574 1577 1579 1581 1582 1584 1585 1586 1587 1587 1588 1588 1589 1590 1591 1591 1592 1592 1593 1594 1594 1595
1526 1533 1529 1521 1520 1523 1525 1527 1529 1533 1534 1536 1539 1541 1543 1544 1546 1549 1552 1555 1558 1560 1562 1563 1566 1568 1571 1573 1575 1577 1579 1580 1582 1584 1585 1587 1587 1588 1589 1590 1591 1592 1593 1593 1594 1595 1595 1596 1596
1523 1528 1524 1523 1524 1526 1526 1527 1528 1530 1533 1531 1534 1536 1541 1542 1544 1546 1549 1551 1554 1557 1560 1562 1564 1567 1569 1570 1573 1575 1577 1579 1580 1582 1584 1585 1586 1588 1589 1591 1592 1593 1593 1594 1595 1595 1596 1596 1597
1526 1521 1524 1527 1527 1528 1528 1528 1526 1529 1529 1529 1531 1531 1535 1538 1540 1541 1544 1547 1549 1552 1555 1559 1562 1565 1566 1568 1570 1573 1575 1577 1578 1580 1582 1584 1584 1586 1588 1590 1592 1592 1594 1594 1595 1595 1596 1597 1597
1525 1522 1525 1527 1528 1530 1528 1528 1527 1525 1527 1528 1530 1531 1533 1535 1537 1539 1541 1544 1547 1547 1550 1553 1557 1560 1563 1566 1568 1570 1572 1574 1576 1577 1580 1581 1582 1583 1586 1588 1590 1592 1593 1593 1594 1595 1596 1596 1597
1524 1522 1525 1526 1529 1530 1529 1528 1527 1523 1523 1526 1526 1529 1531 1532 1534 1537 1539 1539 1541 1544 1544 1547 1551 1554 1558 1560 1563 1566 1569 1571 1573 1574 1576 1578 1579 1581 1582 1586 1588 1589 1591 1592 1593 1595 1595 1596 1596
1525 1525 1525 1525 1528 1529 1529 1528 1522 1518 1521 1523 1524 1524 1527 1529 1531 1532 1533 1536 1537 1539 1542 1542 1546 1550 1553 1555 1558 1561 1565 1568 1569 1571 1572 1574 1575 1577 1579 1581 1584 1587 1588 1589 1591 1592 1593 1593 1594
1525 1525 1531 1518 1525 1528 1530 1531 1514 1514 1516 1519 1521 1522 1523 1524 1525 1527 1529 1531 1535 1537 1538 1539 1540 1544 1547 1549 1552 1555 1558 1561 1564 1567 1569 1571 1571 1573 1575 1577 1579 1583 1584 1585 1588 1589 1590 1591 1592
1525 1535 1530 1527 1524 1527 1530 1526 1516 1514 1515 1516 1518 1518 1519 1519 1520 1521 1523 1526 1528 1531 1533 1534 1534 1537 1541 1545 1548 1551 1554 1556 1559 1562 1565 1566 1568 1567 1570 1573 1575 1577 1579 1581 1583 1585 1587 1588 1589
1528 1531 1523 1522 1527 1528 1529 1527 1516 1514 1513 1512 1513 1514 1514 1513 1513 1516 1517 1520 1522 1524 1527 1529 1530 1531 1536 1540 1543 1545 1548 1551 1554 1556 1560 1561 1563 1563 1565 1568 1570 1573 1574 1576 1578 1581 1582 1584 1586
1520 1525 1523 1519 1526 1527 1527 1522 1515 1510 1507 1506 1506 1506 1506 1506 1509 1511 1512 1513 1516 1518 1520 1522 1524 1526 1529 1531 1534 1537 1538 1542 1545 1548 1552 1555 1558 1557 1558 1560 1564 1566 1568 1572 1573 1574 1577 1579 1580
1520 1529 1529 1520 1524 1527 1524 1519 1510 1504 1499 1499 1498 1499 1499 1500 1502 1504 1505 1506 1507 1510 1513 1516 1517 1519 1522 1524 1527 1530 1533 1536 1539 1542 1544 1547 1549 1550 1551 1552 1556 1559 1562 1564 1566 1567 1569 1573 1575
1522 1528 1529 1528 1525 1522 1525 1520 1503 1492 1491 1491 1491 1491 1492 1493 1496 1498 1499 1500 1501 1503 1506 1509 1511 1513 1515 1519 1522 1525 1529 1531 1532 1532 1536 1539 1540 1541 1543 1545 1548 1552 1555 1556 1559 1562 1563 1565 1568
1529 1519 1522 1526 1534 1542 1523 1543 1503 1495 1490 1486 1484 1485 1485 1487 1488 1491 1494 1494 1495 1497 1501 1503 1505 1508 1510 1513 1515 1517 1518 1521 1522 1525 1527 1532 1533 1534 1536 1538 1540 1544 1546 1548 1551 1554 1555 1556 1559
1523 1522 1522 1524 1534 1534 1529 1544 1509 1493 1492 1484 1480 1480 1482 1484 1485 1486 1489 1491 1491 1494 1495 1497 1499 1501 1503 1505 1507 1509 1512 1514 1516 1519 1521 1523 1526 1528 1529 1531 1533 1536 1538 1541 1544 1546 1546 1548 1552
1522 1526 1526 1529 1535 1551 1528 1529 1507 1497 1485 1477 1477 1479 1481 1482 1483 1485 1486 1487 1487 1488 1490 1491 1492 1494 1497 1499 1501 1502 1504 1506 1508 1509 1511 1514 1516 1518 1520 1523 1526 1528 1530 1533 1536 1539 1540 1543 1543
1524 1528 1547 1554 1559 1547 1514 1520 1497 1480 1475 1477 1477 1478 1481 1481 1482 1483 1483 1484 1485 1485 1485 1486 1487 1488 1491 1493 1495 1498 1500 1500 1501 1502 1502 1505 1506 1508 1510 1513 1515 1517 1521 1524 1529 1530 1532 1535 1533
1525 1524 1542 1551 1550 1535 1527 1520 1495 1474 1472 1473 1474 1476 1478 1481 1480 1479 1480 1479 1480 1481 1482 1483 1484 1485 1487 1489 1491 1493 1495 1496 1495 1497 1495 1495 1496 1501 1504 1505 1507 1510 1514 1517 1521 1523 1525 1527 1527
1520 1526 1513 1528 1549 1550 1518 1493 1479 1474 1474 1473 1473 1475 1476 1477 1477 1476 1477 1477 1477 1478 1480 1481 1482 1483 1484 1485 1487 1487 1489 1489 1490 1491 1490 1489 1489 1491 1494 1496 1498 1503 1507 1510 1512 1515 1520 1521 1521
1510 1509 1528 1531 1549 1550 1512 1505 1496 1480 1478 1472 1472 1475 1476 1476 1475 1474 1474 1475 1477 1477 1479 1480 1481 1482 1483 1483 1484 1484 1485 1485 1484 1484 1483 1482 1482 1483 1484 1488 1490 1494 1497 1501 1504 1507 1512 1513 1516
1514 1514 1511 1512 1521 1534 1526 1505 1469 1472 1472 1474 1475 1476 1478 1476 1475 1474 1474 1475 1477 1478 1479 1480 1481 1482 1482 1482 1482 1481 1480 1479 1479 1477 1476 1475 1476 1476 1476 1479 1483 1485 1490 1493 1497 1499 1504 1506 1508
1500 1499 1505 1517 1519 1520 1524 1487 1467 1469 1470 1473 1477 1478 1478 1477 1477 1476 1476 1476 1478 1480 1479 1479 1480 1479 1479 1479 1477 1475 1475 1474 1472 1471 1470 1470 1469 1470 1471 1473 1476 1478 1482 1486 1488 1490 1494 1497 1499